Flag for Switzerland Weather past 2 weeks in Allschwil, Basel-Land, Switzerland

Now
74 °F

Overcast.


Feels Like: 77 °F
Forecast: 58 / 76 °F
Wind: 10 mph from North

Location: Bale-Mulhouse

Current Time: Jul 31, 2015 at 4:24:09 PM

Latest Report: Jul 31, 2015 at 3:00 PM


Visibility: 25 mi

Pressure: 29.94 "Hg

Humidity: 43%

Dew point: 50 °F

Location of AllschwilLocation

Historic Weather in Allschwil — Graph

°F

Allschwil temperature yesterday

Maximum temperature yesterday: 74 °F (at 4:00 PM)
Minimum temperature yesterday: 48 °F (at 6:00 AM)
Average temperature yesterday: 62 °F

Past Weeks' High & Low Weather Summary

 TemperatureHumidityPressure
High97 °F (Jul 17, 3:00 PM)98% (Jul 30, 4:00 AM)30.14 "Hg (Jul 30, 4:00 AM)
Low46 °F (Jul 31, 6:00 AM)22% (Jul 17, 5:00 PM)29.65 "Hg (Jul 24, 7:00 PM)
Average71 °F64%29.93 "Hg
* Reported Jul 16 3:00 PM — Jul 31 3:00 PM, Allschwil, Weather by CustomWeather, © 2015

Note: Actual official high and low records may vary slightly from our data, if they occured in-between our weather recording intervals... More about our weather records

Advertising

Allschwil weather history for previous 24 hours

 ConditionsComfort  
Time TempWeatherWind HumidityBarometerVisibility
3:00 PM
Fri, Jul 31
74 °FOvercast.10 mph43%29.94 "Hg25 mi
2:00 PM72 °FOvercast.7 mph42%29.95 "Hg25 mi
1:00 PM70 °FLow clouds.7 mph46%29.99 "Hg25 mi
12:00 PM66 °FOvercast.7 mph51%30.01 "Hg25 mi
11:00 AM64 °FOvercast.6 mph55%30.03 "Hg25 mi
10:00 AM60 °FPartly sunny.6 mph59%30.05 "Hg25 mi
9:00 AM57 °FCool.6 mph70%30.07 "Hg28 mi
8:00 AM52 °FPassing clouds.5 mph86%30.09 "Hg25 mi
7:00 AM47 °FPassing clouds.2 mph93%30.09 "Hg25 mi
6:00 AM46 °FPassing clouds.2 mph93%30.10 "Hg25 mi
4:00 AM49 °FPassing clouds.6 mph86%30.09 "Hg19 mi
3:00 AM51 °FCool.6 mph83%30.09 "Hg37 mi
2:00 AM52 °FCool.5 mph81%30.09 "Hg37 mi
1:00 AM53 °FCool.6 mph75%30.09 "Hg37 mi
12:00 AM57 °FPassing clouds.8 mph67%30.08 "Hg19 mi
10:00 PM
Thu, Jul 30
57 °FPassing clouds.3 mph74%30.05 "Hg19 mi
9:00 PM63 °FScattered clouds.5 mph53%30.02 "Hg25 mi
8:00 PM69 °FScattered clouds.3 mph44%29.99 "Hg25 mi
7:00 PM72 °FPartly sunny.8 mph33%29.97 "Hg31 mi
6:00 PM72 °FScattered clouds.9 mph32%29.97 "Hg31 mi
5:00 PM73 °FScattered clouds.7 mph33%29.97 "Hg31 mi
4:00 PM74 °FScattered clouds.6 mph34%29.97 "Hg31 mi
Weather by CustomWeather, © 2015

See weather overviewHow to use our weather pages